Regional Weather Roundup
Issued by NWS

Home | Current Version | Previous Version | Text Only | Print | Product List | Glossary Off
Versions: 1 2 3 4 5 6 7 8 9 10 11 12 13 14 15 16 17 18 19 20 21 22 23 24 25 26 27 28 29 30 31 32 33 34 35 36 37 38 39 40 41 42 43 44 45 46 47 48 49 50

000
ASUS43 KOAX 221510
RWRNE

WEATHER ROUNDUP FOR NEBRASKA
NATIONAL WEATHER SERVICE OMAHA NE
1000 AM CDT SUN APR 22 2018

NOTES: SATELLITE DATA IS BEING USED TO AUGMENT CLOUD COVER ABOVE
       12000 FEET.
       "FAIR" INDICATES FEW OR NO CLOUDS BELOW 12,000 FEET WITH NO
       SIGNIFICANT WEATHER AND/OR OBSTRUCTIONS TO VISIBILITY.


NEZ001>004-019>022-054>056-221600-
NEBRASKA PANHANDLE

CITY           SKY/WX    TMP DP  RH WIND       PRES   REMARKS
SCOTTSBLUFF    CLOUDY    41  40  96 SE6       30.20S
ALLIANCE       CLOUDY    39  38  96 S10       30.20R WCI  32
CHADRON        SUNNY     44  39  82 W6        30.19S
GORDON         CLOUDY    41  38  89 SW9       30.20S
KIMBALL        FOG       36  36 100 S5        30.19S VSB 1/4 WCI  32
SIDNEY         CLOUDY    40  33  76 SW6       30.21S
$$

NEZ057>060-069>072-079>082-221600-
SOUTHWEST NEBRASKA

CITY           SKY/WX    TMP DP  RH WIND       PRES   REMARKS
NORTH PLATTE   MOSUNNY   45  38  76 CALM      30.24F
IMPERIAL       CLOUDY    43  39  86 CALM      30.24S
LEXINGTON      CLOUDY    44  39  84 NE6       30.26S
MCCOOK         MOSUNNY   44  39  82 W3        30.25S
OGALLALA       CLOUDY    43  40  91 CALM      30.23S
$$

NEZ005>010-023>029-035>040-094-221600-
NORTH CENTRAL NEBRASKA

CITY           SKY/WX    TMP DP  RH WIND       PRES   REMARKS
VALENTINE      SUNNY     48  39  71 SW7       30.24R
AINSWORTH      SUNNY     46  37  70 SW5       30.24S
BROKEN BOW     MOSUNNY   47  37  68 NE6       30.25R
O`NEILL        SUNNY     52  37  56 E6        30.26F
ORD            SUNNY     49  36  61 NE5       30.24F
THEDFORD       SUNNY     47  39  74 SW3       30.24S
$$

NEZ041-046>049-061>064-073>077-083>087-221600-
SOUTH CENTRAL NEBRASKA

CITY           SKY/WX    TMP DP  RH WIND       PRES   REMARKS
GRAND ISLAND   CLOUDY    49  38  65 N5        30.25S
AURORA         SUNNY     48  39  70 NE10      30.24F
HASTINGS       SUNNY     48  40  73 NE15      30.24S
HEBRON         CLOUDY    48  39  71 N10       30.22S
HOLDREGE       CLOUDY    43  40  89 N6        30.24S
KEARNEY        CLOUDY    45  40  82 N10       30.26R
YORK             N/A     48  37  66 NE7       30.24S
$$

NEZ011>018-030>034-042>045-221600-
NORTHEAST NEBRASKA

CITY           SKY/WX    TMP DP  RH WIND       PRES   REMARKS
NORFOLK        SUNNY     49  34  56 NE6       30.25S
ALBION         SUNNY     52  32  46 N8        30.26S
BLAIR          CLOUDY    52  33  48 NE10      30.23S
COLUMBUS       SUNNY     51  33  50 NE8       30.26F
FREMONT        CLOUDY    53  34  49 NE6       30.25S
TEKAMAH        CLOUDY    50  35  56 N12       30.26S
WAYNE          MOSUNNY   50  35  57 NE6       30.27S
$$

NEZ050>053-065>068-078-088>093-221600-
SOUTHEAST NEBRASKA

CITY           SKY/WX    TMP DP  RH WIND       PRES   REMARKS
LINCOLN        CLOUDY    49  34  56 N14       30.23F
OMAHA EPPLEY   CLOUDY    57  32  38 E7        30.22F
BEATRICE       MOSUNNY   51  38  60 N10       30.20S
FALLS CITY     CLOUDY    53  33  46 NE14G23   30.17S
NEBRASKA CITY  CLOUDY    52  35  51 NE9       30.20S
PLATTSMOUTH    MOSUNNY   53  34  48 NE12      30.21S
$$

NEZ044-045-051>053-067-221600-
OMAHA AREA

CITY           SKY/WX    TMP DP  RH WIND       PRES   REMARKS
OMAHA EPPLEY   CLOUDY    57  32  38 E7        30.22F
BLAIR          CLOUDY    52  33  48 NE10      30.23S
FREMONT        CLOUDY    53  34  49 NE6       30.25S
MILLARD        CLOUDY    57  35  42 E3        30.22F
OFFUTT AFB     CLOUDY    57  32  39 NE9       30.21F
PLATTSMOUTH    MOSUNNY   53  34  48 NE12      30.21S
WAHOO          CLOUDY    50  32  50 N12       30.24S
$$




USA.gov is the U.S. government's official web portal to all federal, state and local government web resources and services.